KE7YUP Weather Reports


time (UTC)temp
C
wind
direction
speed
KPH
gust
KPH
rain 1hr
cm
rain 24hr
cm
rain mn
cm
humidity
%
barometer
mb
20260902102215 18 139 4.8 9.7 0.00 0.00 0.00 55 1018.9
20260902101215 18 75 3.2 4.8 0.00 0.00 0.00 57 1018.8
20260902100215 18 76 0.0 1.6 0.00 0.00 0.00 59 1019.3
20260902095215 18 65 4.8 6.4 0.00 0.00 0.00 61 1019.3
20260902094215 18 92 3.2 6.4 0.00 0.00 0.00 61 1019.4
20260902093215 18 59 6.4 12.9 0.00 0.00 0.00 61 1018.7
20260902092215 18 52 6.4 9.7 0.00 0.00 0.00 60 1018.8
20260902091257 17 52 4.8 6.4 0.00 0.00 0.00 62 1018.5
20260902090235 18 58 6.4 8.0 0.00 0.00 0.00 61 1018.9
20260902085215 18 56 6.4 8.0 0.00 0.00 0.00 60 1019.0
20260902084215 18 34 4.8 8.0 0.00 0.00 0.00 62 1019.0
20260902083215 18 341 8.0 9.7 0.00 0.00 0.00 58 1019.0
20260902082215 18 26 3.2 4.8 0.00 0.00 0.00 58 1019.4
20260902081217 18 51 3.2 6.4 0.00 0.00 0.00 57 1019.5
20260902080237 18 42 3.2 6.4 0.00 0.00 0.00 59 1019.0
20260902075217 18 329 4.8 6.4 0.00 0.00 0.00 57 1019.0
20260902074217 19 53 3.2 4.8 0.00 0.00 0.00 54 1019.2
20260902073217 19 75 8.0 11.3 0.00 0.00 0.00 51 1019.2
20260902072217 18 0.0 1.6 0.00 0.00 0.00 50 1018.7
20260902071257 18 355 0.0 1.6 0.00 0.00 0.00 51 1018.6
20260902070217 18 355 0.0 1.6 0.00 0.00 0.00 53 1018.3
20260902065237 18 355 3.2 4.8 0.00 0.00 0.00 58 1018.4
20260902064217 18 355 1.6 3.2 0.00 0.00 0.00 57 1018.4
20260902063216 18 355 4.8 8.0 0.00 0.00 0.00 56 1018.0
20260902062217 18 355 3.2 3.2 0.00 0.00 0.00 56 1018.1
20260902061217 19 355 3.2 4.8 0.00 0.00 0.00 56 1018.2
20260902060216 19 355 1.6 3.2 0.00 0.00 0.00 56 1018.3
20260902055216 20 355 0.0 3.2 0.00 0.00 0.00 55 1018.5
20260902054236 20 355 4.8 4.8 0.00 0.00 0.00 55 1018.5
20260902053216 19 355 3.2 4.8 0.00 0.00 0.00 56 1017.8
20260902052216 19 355 4.8 6.4 0.00 0.00 0.00 57 1017.9
20260902051215 19 355 6.4 9.7 0.00 0.00 0.00 56 1017.9
20260902050215 20 355 6.4 8.0 0.00 0.00 0.00 54 1017.9
20260902045216 20 324 8.0 12.9 0.00 0.00 0.00 53 1018.0
20260902044215 21 319 4.8 6.4 0.00 0.00 0.00 50 1018.4
20260902043216 21 0.0 0.0 0.00 0.00 0.00 49 1018.3
20260902042215 21 319 3.2 6.4 0.00 0.00 0.00 50 1018.4
20260902041215 21 257 3.2 4.8 0.00 0.00 0.00 51 1018.4
20260902040215 21 257 1.6 4.8 0.00 0.00 0.00 51 1018.6
20260902035215 21 38 4.8 6.4 0.00 0.00 0.00 53 1018.6
20260902034215 22 319 4.8 6.4 0.00 0.00 0.00 49 1018.8
20260902033215 22 0.0 0.0 0.00 0.00 0.00 44 1018.6
20260902032215 23 198 1.6 4.8 0.00 0.00 0.00 42 1018.3
20260902031216 23 165 4.8 8.0 0.00 0.00 0.00 42 1018.2
20260902030215 23 156 6.4 11.3 0.00 0.00 0.00 39 1017.9
20260902025215 23 161 4.8 9.7 0.00 0.00 0.00 38 1017.9
20260902024215 23 178 9.7 19.3 0.00 0.00 0.00 38 1017.8
20260902023215 23 167 6.4 12.9 0.00 0.00 0.00 40 1017.8
20260902022215 23 178 6.4 11.3 0.00 0.00 0.00 42 1017.7
20260902021235 23 172 4.8 9.7 0.00 0.00 0.00 42 1017.8
20260902020215 23 187 12.9 22.5 0.00 0.00 0.00 41 1017.2
20260902015215 23 174 6.4 12.9 0.00 0.00 0.00 44 1017.2
20260902014215 24 188 9.7 14.5 0.00 0.00 0.00 44 1017.8
20260902013215 24 180 8.0 14.5 0.00 0.00 0.00 43 1017.5
20260902012215 25 159 8.0 17.7 0.00 0.00 0.00 43 1017.7
20260902011235 25 153 14.5 24.1 0.00 0.00 0.00 42 1017.7
20260902010215 25 156 9.7 19.3 0.00 0.00 0.00 41 1018.0
20260902005215 25 151 12.9 19.3 0.00 0.00 0.00 40 1018.1
20260902004215 25 161 9.7 20.9 0.00 0.03 0.00 40 1018.2
20260902003215 24 142 9.7 14.5 0.00 0.03 0.00 45 1017.6
20260902002235 24 112 16.1 24.1 0.00 0.03 0.00 47 1017.7
20260902001235 24 136 16.1 27.4 0.00 0.03 0.00 46 1017.8
20260902000215 25 155 16.1 25.7 0.00 0.03 0.00 45 1018.1
20260901235235 25 133 14.5 24.1 0.00 0.03 0.00 45 1018.4
20260901234215 24 117 11.3 17.7 0.00 0.03 0.00 46 1018.3
20260901233215 24 126 11.3 20.9 0.00 0.03 0.00 46 1018.3
20260901232215 25 147 8.0 20.9 0.00 0.03 0.00 45 1018.6
20260901231215 25 136 6.4 22.5 0.00 0.03 0.00 43 1018.6
20260901230215 25 104 16.1 22.5 0.00 0.03 0.00 43 1018.4
20260901225217 25 156 8.0 20.9 0.00 0.03 0.00 44 1018.5
20260901224217 25 153 14.5 24.1 0.00 0.03 0.00 45 1018.7
20260901223217 25 154 16.1 22.5 0.00 0.03 0.00 44 1019.3
20260901222217 25 164 3.2 16.1 0.00 0.03 0.00 47 1019.3
20260901221217 24 157 16.1 22.5 0.00 0.03 0.00 48 1019.3
20260901220217 23 111 9.7 17.7 0.00 0.03 0.00 48 1019.2
20260901215217 24 96 11.3 17.7 0.00 0.03 0.00 47 1019.8
20260901214217 25 167 12.9 22.5 0.00 0.03 0.00 42 1020.2
20260901213217 25 167 11.3 29.0 0.00 0.03 0.00 42 1020.3
20260901212216 23 139 12.9 19.3 0.00 0.03 0.00 47 1020.0
20260901211217 23 144 14.5 22.5 0.00 0.03 0.00 51 1020.5
20260901210216 24 250 6.4 14.5 0.00 0.03 0.00 45 1021.0
20260901205237 25 172 12.9 22.5 0.00 0.03 0.00 43 1020.9
20260901204236 24 187 9.7 14.5 0.00 0.03 0.00 47 1021.1
20260901203237 25 181 12.9 22.5 0.00 0.03 0.00 44 1021.0
20260901202216 25 220 11.3 30.6 0.00 0.03 0.00 45 1021.1
20260901201217 24 178 12.9 22.5 0.00 0.03 0.00 46 1021.4
20260901200216 24 168 11.3 19.3 0.00 0.03 0.00 50 1021.8
20260901195216 23 130 14.5 20.9 0.00 0.03 0.00 51 1021.8
20260901194217 23 143 6.4 16.1 0.00 0.03 0.00 51 1021.7
20260901193237 23 143 11.3 25.7 0.00 0.03 0.00 51 1021.8
20260901192216 23 94 11.3 19.3 0.00 0.03 0.00 52 1021.9
20260901191236 22 105 11.3 16.1 0.00 0.03 0.00 52 1022.0
20260901190216 22 138 6.4 19.3 0.00 0.03 0.00 54 1021.9
20260901185216 22 108 12.9 17.7 0.00 0.03 0.00 53 1021.9
20260901184216 22 99 6.4 14.5 0.00 0.03 0.00 54 1022.0
20260901183236 22 103 8.0 14.5 0.00 0.03 0.00 54 1022.2
20260901182216 21 142 11.3 16.1 0.00 0.03 0.00 56 1022.4
20260901181216 21 111 6.4 12.9 0.00 0.03 0.00 59 1022.2
20260901180216 20 109 3.2 9.7 0.00 0.03 0.00 59 1022.3
20260901175216 20 92 4.8 6.4 0.00 0.03 0.00 59 1022.5
20260901174236 20 101 8.0 12.9 0.00 0.03 0.00 58 1022.5
20260901173216 20 115 8.0 14.5 0.00 0.03 0.00 58 1022.5
20260901172216 20 89 9.7 14.5 0.00 0.03 0.00 59 1022.0
20260901171216 20 92 9.7 14.5 0.00 0.03 0.00 61 1022.2
20260901170216 20 151 9.7 14.5 0.00 0.03 0.00 60 1022.4
20260901165216 20 123 9.7 16.1 0.00 0.03 0.00 61 1022.1
20260901164216 19 144 6.4 8.0 0.00 0.03 0.00 62 1022.1
20260901163216 18 131 11.3 17.7 0.00 0.03 0.00 65 1021.7
20260901162216 18 90 11.3 12.9 0.00 0.03 0.00 65 1021.6
20260901161216 18 106 9.7 14.5 0.00 0.03 0.00 65 1021.7
20260901160216 19 156 4.8 11.3 0.00 0.03 0.00 64 1021.6
20260901155216 18 152 6.4 8.0 0.00 0.03 0.00 63 1021.6
20260901154216 18 149 0.0 1.6 0.00 0.03 0.00 63 1021.6
20260901153216 18 177 0.0 3.2 0.00 0.03 0.00 66 1021.7
20260901152216 17 177 1.6 4.8 0.00 0.03 0.00 68 1021.3
20260901151216 17 188 3.2 4.8 0.00 0.03 0.00 68 1021.3
20260901150236 16 220 4.8 8.0 0.00 0.03 0.00 71 1021.4
20260901145215 16 242 8.0 12.9 0.00 0.03 0.00 71 1021.0
20260901144216 16 229 3.2 4.8 0.00 0.03 0.00 72 1020.9
20260901143216 16 218 3.2 8.0 0.00 0.03 0.00 72 1021.1
20260901142236 16 248 3.2 6.4 0.00 0.03 0.00 72 1021.1
20260901141216 16 226 6.4 8.0 0.00 0.03 0.00 72 1021.2
20260901140236 15 329 1.6 3.2 0.00 0.03 0.00 72 1020.6
20260901135216 15 329 0.0 3.2 0.00 0.03 0.00 74 1020.4
20260901134215 14 329 4.8 6.4 0.00 0.03 0.00 76 1020.0
20260901133256 14 329 1.6 3.2 0.00 0.03 0.00 76 1019.9
20260901132215 14 293 3.2 6.4 0.00 0.03 0.00 76 1019.9
20260901131216 13 293 1.6 3.2 0.00 0.03 0.00 78 1019.8
20260901130216 13 139 0.0 1.6 0.00 0.03 0.00 79 1019.4
20260901125216 13 86 3.2 11.3 0.00 0.03 0.00 79 1019.3
20260901124215 13 287 1.6 3.2 0.00 0.03 0.00 79 1019.6
20260901123236 13 281 4.8 6.4 0.00 0.03 0.00 80 1019.5
20260901122215 13 0.0 0.0 0.00 0.03 0.00 80 1019.6
20260901121216 13 324 4.8 6.4 0.00 0.03 0.00 82 1019.6
20260901120216 13 324 3.2 4.8 0.00 0.03 0.00 81 1020.1
20260901115217 13 299 3.2 4.8 0.00 0.03 0.00 81 1020.3
20260901114215 13 299 4.8 6.4 0.00 0.03 0.00 80 1020.2
20260901113236 13 299 1.6 3.2 0.00 0.03 0.00 80 1020.1
20260901112215 13 0.0 1.6 0.00 0.03 0.00 80 1020.0
20260901111255 13 299 3.2 4.8 0.00 0.03 0.00 80 1020.0
20260901110215 13 299 0.0 1.6 0.00 0.03 0.00 80 1021.4
20260901105215 13 0.0 0.0 0.00 0.03 0.00 81 1021.5
20260901104215 13 299 3.2 4.8 0.00 0.03 0.00 80 1021.4
20260901103215 13 299 1.6 1.6 0.00 0.03 0.00 80 1021.6